Location: Northern Prairie Star Party
(53.2167°N, 112.5333°W)
Time: 11:14:27
(UTC-07:00)

Amateur Radio Satellites - All Passes

Search period start: 12 February 2016 10:44
Search period end: 13 February 2016 10:44
Location: Northern Prairie Star Party, 53.2167°N, 112.5333°W

Satellite Date Start Highest point End Downlink Frequencies (MHz)
Time Altitude Azimuth
BUGSAT 1 12 Feb 10:49:00 10:53:01 48° 69° (ENE) 10:57:01 437.445
UWE-3 12 Feb 10:49:52 10:53:49 41° 293° (WNW) 10:57:49 435.000/436.395/437.385
CUBEBUG 1 12 Feb 10:52:11 10:54:06 13° 86° (E) 10:56:00 437.445
HO-68 12 Feb 10:54:25 11:00:46 35° 307° (NW) 11:07:05 435.675
DX 1 12 Feb 10:54:30 10:57:10 16° 88° (E) 10:59:48 434.975-435.025
CUBEBUG 2 12 Feb 10:55:18 10:58:55 29° 296° (WNW) 11:02:36 437.445
YUBILEINY 12 Feb 10:57:40 11:00:57 12° 29° (NNE) 11:04:13 435.215
POLYITAN 1 12 Feb 11:02:07 11:06:20 71° 257° (WSW) 11:10:34 437.675
QB50P2 12 Feb 11:02:37 11:06:50 68° 257° (WSW) 11:11:05 145.880/145.840
CINEMA 3 12 Feb 11:08:57 11:10:29 12° 307° (NW) 11:12:00 145.822/145.860
ESTCUBE 1 12 Feb 11:12:18 11:16:06 25° 92° (E) 11:19:52 437.505/2401.250
AO-85 12 Feb 11:13:40 11:19:09 88° 131° (SE) 11:24:41 145.980
50 SAT 12 Feb 11:14:25 11:17:36 25° 94° (E) 11:20:46 437.505
SO-50 12 Feb 11:18:05 11:22:41 37° 29° (NNE) 11:27:09 436.795
CUSAT 1 12 Feb 11:18:33 11:23:54 28° 55° (NE) 11:28:10 437.405
Gurwin Techsat 1B 12 Feb 11:20:11 11:21:51 11° 44° (NE) 11:23:31 435.225
PCSat 12 Feb 11:23:54 11:29:19 75° 126° (SE) 11:34:47 145.827
UNISAT 6 12 Feb 11:25:13 11:27:45 15° 272° (W) 11:30:17 437.425
AO-7 12 Feb 11:25:52 11:30:05 15° 20° (NNE) 11:34:18 29.400- 29.500
JAS-2 12 Feb 11:26:32 11:32:15 26° 54° (NE) 11:37:30 435.910
HUMSAT D 12 Feb 11:31:49 11:35:57 62° 289° (WNW) 11:40:06 437.325/437.525
POPSAT HIP 1 12 Feb 11:32:02 11:36:00 38° 262° (W) 11:39:59 437.405
Cosmos 2499 12 Feb 11:32:48 11:41:17 48° 293° (WNW) 11:49:47 435.465 / 435.565
NANOSAT C BR1 12 Feb 11:34:59 11:38:54 37° 263° (W) 11:42:50 145.865
DUCHIFAT 1 12 Feb 11:35:06 11:39:02 38° 263° (W) 11:42:59 145.980
DELFI C3 12 Feb 11:35:25 11:38:54 28° 296° (WNW) 11:42:22 145.870
ZACube-1 12 Feb 11:38:02 11:41:20 23° 299° (WNW) 11:44:39 437.345
QB50P1 12 Feb 11:44:45 11:48:28 29° 265° (W) 11:52:13 145.935-145.965
FUNcube-1 12 Feb 11:45:43 11:48:51 20° 300° (WNW) 11:52:00 145.935
VELOX 1 12 Feb 11:58:07 12:02:29 54° 101° (E) 12:06:48 145.980
Oscar 19 12 Feb 12:01:44 12:06:31 40° 63° (ENE) 12:11:19 437.125/150
AIST 1 12 Feb 12:08:17 12:11:57 25° 294° (WNW) 12:15:38
UKube-1 12 Feb 12:12:21 12:16:41 66° 103° (ESE) 12:20:59 .
DANDE 12 Feb 12:14:52 12:21:59 46° 64° (ENE) 12:27:31 436.750
GONETS M04 12 Feb 12:15:16 12:21:13 20° 315° (NW) 12:27:16
AISAT 12 Feb 12:15:19 12:19:47 80° 105° (ESE) 12:24:11 437.250
Oscar 11 12 Feb 12:15:54 12:17:09 11° 309° (NW) 12:18:25 145.826/435.025
TISAT 1 12 Feb 12:16:19 12:18:13 13° 86° (E) 12:20:07 437.305
SPROUT 12 Feb 12:16:55 12:20:43 30° 95° (E) 12:24:28 437.525
BUGSAT 1 12 Feb 12:25:19 12:28:39 23° 267° (W) 12:31:59 437.445
RS-15 12 Feb 12:26:15 12:37:29 77° 127° (SE) 12:49:23 29.354- 29.394
CUBEBUG 1 12 Feb 12:26:42 12:31:07 86° 103° (ESE) 12:35:29 437.445
DX 1 12 Feb 12:29:32 12:33:55 77° 288° (WNW) 12:38:16 434.975-435.025
Cosmos 2504 12 Feb 12:39:26 12:42:11 12° 28° (NNE) 12:44:53 435.465 / 435.565
HO-68 12 Feb 12:43:40 12:46:30 13° 331° (NNW) 12:49:20 435.675
50 SAT 12 Feb 12:48:12 12:51:44 37° 293° (WNW) 12:55:16 437.505
ESTCUBE 1 12 Feb 12:48:46 12:53:11 50° 292° (WNW) 12:57:35 437.505/2401.250
YUBILEINY 12 Feb 12:53:22 13:01:21 35° 59° (ENE) 13:09:16 435.215
AO-85 12 Feb 12:55:18 13:00:19 34° 335° (NNW) 13:05:16 145.980
Gurwin Techsat 1B 12 Feb 12:55:34 13:00:36 46° 65° (ENE) 13:05:41 435.225
SO-50 12 Feb 12:58:40 13:03:31 64° 231° (SW) 13:08:11 436.795
CUSAT 1 12 Feb 13:00:47 13:06:51 60° 264° (W) 13:11:23 437.405
PCSat 12 Feb 13:08:18 13:13:13 34° 328° (NNW) 13:18:10 145.827
JAS-2 12 Feb 13:09:15 13:16:42 90° 231° (SW) 13:23:22 435.910
HUMSAT D 12 Feb 13:09:45 13:10:49 11° 308° (NW) 13:11:53 437.325/437.525
Cosmos 2491 12 Feb 13:12:52 13:17:26 16° 68° (ENE) 13:21:59 435.465 / 435.565
AO-7 12 Feb 13:13:17 13:20:27 33° 46° (NE) 13:27:37 29.400- 29.500
ITAMSAT 1 12 Feb 13:16:51 13:21:41 40° 63° (ENE) 13:26:33 435.822/435.867
Cosmos 2499 12 Feb 13:31:55 13:37:07 16° 320° (NW) 13:42:16 435.465 / 435.565
VELOX 1 12 Feb 13:35:08 13:38:43 24° 300° (WNW) 13:42:16 145.980
SWISSCUBE 12 Feb 13:37:38 13:41:10 20° 90° (E) 13:44:41 437.505
Oscar 19 12 Feb 13:41:02 13:45:53 39° 263° (W) 13:50:44 437.125/150
UKube-1 12 Feb 13:49:11 13:52:21 20° 303° (WNW) 13:55:31 .
TISAT 1 12 Feb 13:50:19 13:54:32 88° 293° (WNW) 13:58:43 437.305
AISAT 12 Feb 13:52:47 13:55:45 18° 305° (NW) 13:58:43 437.250
SPROUT 12 Feb 13:52:49 13:56:47 37° 294° (WNW) 14:00:43 437.525
DANDE 12 Feb 13:58:12 14:04:59 44° 271° (W) 14:10:15 436.750
CUBEBUG 1 12 Feb 14:04:06 14:06:51 17° 305° (NW) 14:09:35 437.445
DX 1 12 Feb 14:07:11 14:09:25 14° 308° (NW) 14:11:39 434.975-435.025
HORYU 2 12 Feb 14:10:56 14:13:14 14° 52° (NE) 14:15:34 437.375
ITUPSAT 1 12 Feb 14:15:30 14:19:58 36° 96° (E) 14:24:24 437.325
BEESAT 12 Feb 14:21:57 14:26:31 41° 98° (E) 14:31:03 436.000
ESTCUBE 1 12 Feb 14:28:21 14:29:01 10° 312° (NW) 14:29:40 437.505/2401.250
Cosmos 2504 12 Feb 14:31:31 14:39:13 33° 57° (ENE) 14:46:28 435.465 / 435.565
Gurwin Techsat 1B 12 Feb 14:35:53 14:40:43 35° 265° (W) 14:45:36 435.225
AO-85 12 Feb 14:37:52 14:42:17 24° 359° (N) 14:46:34 145.980
RS-15 12 Feb 14:39:33 14:50:49 57° 337° (NNW) 15:02:44 29.354- 29.394
SO-50 12 Feb 14:41:07 14:43:04 12° 252° (WSW) 14:45:01 436.795
CUSAT 1 12 Feb 14:46:18 14:47:20 10° 290° (WNW) 14:48:19 437.405
YUBILEINY 12 Feb 14:50:12 14:59:03 74° 264° (W) 15:07:48 435.215
PCSat 12 Feb 14:54:19 14:58:13 19° 353° (N) 15:02:08 145.827
ITAMSAT 1 12 Feb 14:56:20 15:01:12 39° 263° (W) 15:06:06 435.822/435.867
JAS-2 12 Feb 14:56:50 15:02:28 23° 272° (W) 15:07:44 435.910
M-CUBED/EXP-1 PRIME 12 Feb 14:58:30 15:01:52 53° 65° (ENE) 15:05:08 437.505
Cosmos 2491 12 Feb 15:03:52 15:12:21 60° 92° (E) 15:20:52 435.465 / 435.565
AO-7 12 Feb 15:04:05 15:12:29 87° 249° (WSW) 15:20:56 29.400- 29.500
AUBIESAT-1 12 Feb 15:05:34 15:08:56 52° 64° (ENE) 15:12:12 437.475
KKS-1 12 Feb 15:13:54 15:17:25 22° 92° (E) 15:20:54 437.445
SWISSCUBE 12 Feb 15:14:40 15:19:28 70° 290° (WNW) 15:24:15 437.505
CUTE-I 12 Feb 15:21:00 15:22:11 11° 42° (NE) 15:23:21 437.470
TISAT 1 12 Feb 15:27:18 15:29:37 15° 306° (NW) 15:31:55 437.305
MOZHAYETS 4 12 Feb 15:29:31 15:32:23 16° 87° (E) 15:35:15
O/OREOS (USA 219) 12 Feb 15:33:37 15:37:15 22° 41° (NE) 15:40:53 437.305
Cubesat XI-IV 12 Feb 15:34:15 15:36:38 13° 45° (NE) 15:39:02 437.490
HORYU 2 12 Feb 15:44:43 15:49:07 77° 71° (ENE) 15:53:34 437.375
ITUPSAT 1 12 Feb 15:53:23 15:57:52 39° 296° (WNW) 16:02:19 437.325
BEESAT 12 Feb 15:59:56 16:04:15 34° 298° (WNW) 16:08:34 436.000
HO-68 12 Feb 16:13:50 16:15:34 11° 25° (NNE) 16:17:19 435.675
AO-85 12 Feb 16:19:24 16:24:17 33° 23° (NNE) 16:28:55 145.980
GONETS M04 12 Feb 16:23:56 16:25:53 11° 26° (NNE) 16:27:50
STARS 12 Feb 16:24:38 16:28:57 55° 101° (E) 16:33:15 437.465
Cosmos 2504 12 Feb 16:24:54 16:33:38 80° 263° (W) 16:41:46 435.465 / 435.565
ISS 12 Feb 16:26:22 16:29:19 32° 156° (SSE) 16:32:16 145.825
M-CUBED/EXP-1 PRIME 12 Feb 16:34:46 16:36:50 15° 262° (W) 16:38:52 437.505
BRITE-PL 12 Feb 16:36:52 16:40:51 20° 55° (NE) 16:44:40 437.365/2234.400
PCSat 12 Feb 16:39:09 16:43:30 23° 19° (NNE) 16:47:51 145.827
AUBIESAT-1 12 Feb 16:41:44 16:43:50 15° 262° (W) 16:45:53 437.475
YUBILEINY 12 Feb 16:48:23 16:54:19 21° 288° (WNW) 17:00:14 435.215
KKS-1 12 Feb 16:49:59 16:54:19 54° 291° (WNW) 16:58:38 437.445
SWISSCUBE 12 Feb 16:53:54 16:56:29 15° 310° (NW) 16:59:04 437.505
RS-15 12 Feb 16:54:36 17:05:59 50° 10° (N) 17:17:49 29.354- 29.394
CUTE-I 12 Feb 16:55:57 17:00:57 42° 63° (ENE) 17:05:59 437.470
AO-7 12 Feb 16:59:50 17:06:26 25° 271° (W) 17:13:05 29.400- 29.500
Cosmos 2491 12 Feb 17:01:29 17:09:38 42° 296° (WNW) 17:17:51 435.465 / 435.565
MOZHAYETS 4 12 Feb 17:05:31 17:10:11 82° 287° (WNW) 17:14:50
Cubesat XI-IV 12 Feb 17:10:28 17:15:38 53° 66° (ENE) 17:20:51 437.490
O/OREOS (USA 219) 12 Feb 17:12:37 17:17:13 79° 243° (WSW) 17:21:49 437.305
BEESAT 3 12 Feb 17:14:03 17:17:51 45° 126° (SE) 17:21:41 437.485
LilacSat-2 12 Feb 17:16:25 17:19:59 39° 68° (ENE) 17:23:33 437.200
HORYU 2 12 Feb 17:23:30 17:26:16 16° 272° (W) 17:29:01 437.375
GOMX 1 12 Feb 17:26:28 17:30:40 25° 60° (ENE) 17:34:41 467.674
Cosmos 2499 12 Feb 17:31:46 17:34:09 11° 28° (NNE) 17:36:28 435.465 / 435.565
BEESAT 2 12 Feb 17:43:47 17:47:44 56° 127° (SE) 17:51:42 435.950
CUBESAT XI-V 12 Feb 17:54:44 17:59:15 42° 98° (E) 18:03:41 437.345
HO-68 12 Feb 17:55:08 18:01:04 29° 49° (NE) 18:07:02 435.675
AO-85 12 Feb 18:00:06 18:05:29 89° 71° (ENE) 18:10:25 145.980
STARS 12 Feb 18:01:35 18:05:03 23° 301° (WNW) 18:08:31 437.465
ISS 12 Feb 18:02:17 18:05:30 65° 176° (S) 18:08:44 145.825
BRITE-PL 12 Feb 18:13:03 18:18:43 88° 74° (ENE) 18:24:08 437.365/2234.400
STRAND 1 12 Feb 18:14:43 18:16:42 12° 83° (E) 18:18:40 437.568
GONETS M04 12 Feb 18:19:02 18:26:38 31° 56° (ENE) 18:34:12
Cosmos 2504 12 Feb 18:19:31 18:25:37 22° 287° (WNW) 18:31:30 435.465 / 435.565
PCSat 12 Feb 18:22:38 18:28:02 57° 44° (NE) 18:33:23 145.827
CUTE 1.7 + AOD 2 12 Feb 18:23:40 18:26:29 18° 57° (ENE) 18:29:19 437.475
SEEDS 12 Feb 18:25:00 18:27:20 15° 55° (NE) 18:29:42 437.485
AIST 2 12 Feb 18:26:40 18:29:56 22° 117° (ESE) 18:33:13 435.215
KKS-1 12 Feb 18:28:58 18:29:59 11° 312° (NW) 18:31:00 437.445
DOVE 4 12 Feb 18:29:08 18:33:44 42° 67° (ENE) 18:38:07 437.250
AAUSAT CUBESAT 2 12 Feb 18:31:52 18:33:14 11° 52° (NE) 18:34:37 437.432
CUTE-I 12 Feb 18:36:06 18:41:04 39° 263° (W) 18:46:05 437.470
MOZHAYETS 4 12 Feb 18:43:56 18:46:42 16° 306° (NW) 18:49:28
CUBEBUG 2 12 Feb 18:49:16 18:50:44 12° 53° (NE) 18:52:11 437.445
Cubesat XI-IV 12 Feb 18:51:18 18:55:59 30° 266° (W) 19:00:42 437.490
LilacSat-2 12 Feb 18:51:23 18:54:28 23° 267° (W) 18:57:33 437.200
BEESAT 3 12 Feb 18:52:00 18:55:43 36° 326° (NW) 18:59:28 437.485
O/OREOS (USA 219) 12 Feb 18:53:51 18:55:51 13° 262° (W) 18:57:51 437.305
CINEMA 3 12 Feb 19:00:55 19:04:50 31° 65° (ENE) 19:08:39 145.822/145.860
GOMX 1 12 Feb 19:03:11 19:08:27 65° 259° (W) 19:13:25 467.674
Cosmos 2491 12 Feb 19:05:18 19:09:35 14° 325° (NW) 19:13:52 435.465 / 435.565
CANX-2 12 Feb 19:07:48 19:11:48 43° 68° (ENE) 19:15:51 2200.000
RS-15 12 Feb 19:08:20 19:20:25 78° 41° (NE) 19:32:49 29.354- 29.394
BEESAT 2 12 Feb 19:22:11 19:25:51 32° 329° (NNW) 19:29:31 435.950
Cosmos 2499 12 Feb 19:23:24 19:30:53 32° 57° (ENE) 19:37:54 435.465 / 435.565
ZACube-1 12 Feb 19:29:05 19:31:21 15° 55° (NE) 19:33:38 437.345
CUBESAT XI-V 12 Feb 19:32:21 19:36:33 32° 297° (WNW) 19:40:42 437.345
FUNcube-1 12 Feb 19:36:09 19:38:40 16° 56° (ENE) 19:41:11 145.935
COMPASS 1 12 Feb 19:38:29 19:42:27 45° 68° (ENE) 19:46:29 437.405
ISS 12 Feb 19:38:38 19:41:48 50° 195° (SSW) 19:44:58 145.825
HO-68 12 Feb 19:40:54 19:48:07 87° 253° (WSW) 19:55:23 435.675
AO-85 12 Feb 19:41:35 19:45:19 20° 248° (WSW) 19:48:52 145.980
PRISM 12 Feb 19:42:14 19:45:24 20° 92° (E) 19:48:32 437.425
STRAND 1 12 Feb 19:51:42 19:56:53 68° 103° (ESE) 20:02:02 437.568
BRITE-PL 12 Feb 19:53:55 19:57:49 19° 273° (W) 20:01:37 437.365/2234.400
CUTE 1.7 + AOD 2 12 Feb 19:57:38 20:01:51 75° 256° (WSW) 20:06:08 437.475
SEEDS 12 Feb 19:58:15 20:02:27 88° 82° (E) 20:06:43 437.485
Oscar 11 12 Feb 20:02:33 20:06:25 33° 64° (ENE) 20:10:18 145.826/435.025
AAUSAT CUBESAT 2 12 Feb 20:03:52 20:07:58 66° 72° (ENE) 20:12:08 437.432
AIST 2 12 Feb 20:03:57 20:08:06 67° 317° (NW) 20:12:16 435.215
PCSat 12 Feb 20:06:21 20:11:15 35° 245° (WSW) 20:16:08 145.827
DOVE 4 12 Feb 20:07:06 20:11:33 33° 265° (W) 20:15:47 437.250
GONETS M04 12 Feb 20:15:46 20:24:38 85° 261° (W) 20:33:28
UWE-3 12 Feb 20:16:29 20:20:29 45° 68° (ENE) 20:24:29 435.000/436.395/437.385
CUBEBUG 2 12 Feb 20:22:25 20:26:39 68° 72° (ENE) 20:30:48 437.445
AIST 1 12 Feb 20:30:38 20:34:14 24° 65° (ENE) 20:37:48
BEESAT 3 12 Feb 20:31:50 20:34:30 17° 349° (N) 20:37:11 437.485
CINEMA 3 12 Feb 20:37:45 20:41:58 38° 263° (W) 20:46:02 145.822/145.860
CANX-2 12 Feb 20:44:18 20:47:51 26° 267° (W) 20:51:27 2200.000
GOMX 1 12 Feb 20:45:38 20:47:24 12° 277° (W) 20:49:10 467.674
DELFI C3 12 Feb 20:52:16 20:56:10 52° 70° (ENE) 21:00:05 145.870
HUMSAT D 12 Feb 20:54:12 20:57:41 28° 63° (ENE) 21:01:11 437.325/437.525
BEESAT 2 12 Feb 21:02:14 21:04:51 17° 352° (N) 21:07:30 435.950
ZACube-1 12 Feb 21:02:55 21:07:06 90° 55° (NE) 21:11:17 437.345
FUNcube-1 12 Feb 21:10:16 21:14:26 81° 257° (WSW) 21:18:36 145.935
COMPASS 1 12 Feb 21:14:51 21:18:16 24° 268° (W) 21:21:42 437.405
ISS 12 Feb 21:15:30 21:17:46 18° 214° (SW) 21:20:01 145.825
Cosmos 2499 12 Feb 21:16:30 21:25:03 79° 263° (W) 21:32:52 435.465 / 435.565
PRISM 12 Feb 21:16:57 21:21:04 54° 291° (WNW) 21:25:08 437.425
RS-15 12 Feb 21:21:10 21:32:22 47° 247° (WSW) 21:43:46 29.354- 29.394
VELOX 1 12 Feb 21:26:46 21:29:46 18° 56° (NE) 21:32:46 145.980
HO-68 12 Feb 21:31:29 21:36:52 22° 273° (W) 21:42:17 435.675
STRAND 1 12 Feb 21:31:31 21:35:41 25° 303° (WNW) 21:39:49 437.568
UNISAT 6 12 Feb 21:34:19 21:34:49 10° 84° (E) 21:35:19 437.425
SEEDS 12 Feb 21:36:54 21:38:50 13° 274° (W) 21:40:46 437.485
CUTE 1.7 + AOD 2 12 Feb 21:37:50 21:38:30 10° 276° (W) 21:39:11 437.475
UKube-1 12 Feb 21:38:15 21:41:26 20° 57° (ENE) 21:44:37 .
Oscar 11 12 Feb 21:38:34 21:42:32 35° 264° (W) 21:46:32 145.826/435.025
AAUSAT CUBESAT 2 12 Feb 21:41:13 21:43:56 17° 271° (W) 21:46:41 437.432
AISAT 12 Feb 21:43:17 21:46:53 24° 60° (ENE) 21:50:30 437.250
AIST 2 12 Feb 21:43:59 21:47:19 22° 340° (NNW) 21:50:37 435.215
CUBEBUG 1 12 Feb 21:53:19 21:56:54 24° 60° (ENE) 22:00:28 437.445
UWE-3 12 Feb 21:53:47 21:57:11 24° 267° (W) 22:00:35 435.000/436.395/437.385
DX 1 12 Feb 21:55:24 21:59:14 30° 62° (ENE) 22:03:06 434.975-435.025
50 SAT 12 Feb 22:00:28 22:03:46 30° 65° (ENE) 22:07:05 437.505
CUBEBUG 2 12 Feb 22:01:03 22:03:45 16° 271° (W) 22:06:27 437.445
AIST 1 12 Feb 22:07:54 22:12:06 46° 266° (W) 22:16:14
BEESAT 3 12 Feb 22:10:53 22:13:39 18° 13° (NNE) 22:16:24 437.485
GONETS M04 12 Feb 22:13:42 22:20:14 24° 285° (WNW) 22:26:47
ANTELSAT 12 Feb 22:16:47 22:20:23 25° 93° (E) 22:24:03 437.575/2403.000
ESTCUBE 1 12 Feb 22:17:31 22:21:52 47° 68° (ENE) 22:26:15 437.505/2401.250
TIGRISAT 12 Feb 22:22:26 22:26:08 27° 94° (E) 22:29:52 435.000
DELFI C3 12 Feb 22:28:27 22:31:24 20° 269° (W) 22:34:22 145.870
HUMSAT D 12 Feb 22:29:24 22:33:14 38° 263° (W) 22:37:06 437.325/437.525
BEESAT 2 12 Feb 22:41:12 22:44:08 19° 16° (NNE) 22:47:03 435.950
ZACube-1 12 Feb 22:42:20 22:44:03 12° 274° (W) 22:45:47 437.345
POLYITAN 1 12 Feb 22:42:30 22:44:24 13° 86° (E) 22:46:18 437.675
QB50P2 12 Feb 22:42:51 22:44:54 13° 87° (E) 22:46:57 145.880/145.840
FUNcube-1 12 Feb 22:50:22 22:51:26 11° 275° (W) 22:52:29 145.935
PRISM 12 Feb 22:55:18 22:55:31 10° 311° (NW) 22:55:43 437.425
VELOX 1 12 Feb 23:01:16 23:05:44 81° 255° (WSW) 23:10:14 145.980
UNISAT 6 12 Feb 23:08:00 23:12:22 71° 103° (ESE) 23:16:47 437.425
Cosmos 2491 12 Feb 23:10:03 23:14:30 14° 36° (NE) 23:18:56 435.465 / 435.565
POPSAT HIP 1 12 Feb 23:10:47 23:14:07 22° 92° (E) 23:17:27 437.405
Cosmos 2499 12 Feb 23:10:56 23:16:44 21° 287° (WNW) 23:22:17 435.465 / 435.565
UKube-1 12 Feb 23:12:46 23:17:06 67° 257° (WSW) 23:21:27 .
DUCHIFAT 1 12 Feb 23:13:14 23:16:32 22° 92° (E) 23:19:49 145.980
NANOSAT C BR1 12 Feb 23:13:17 23:16:41 23° 92° (E) 23:20:02 145.865
TISAT 1 12 Feb 23:13:22 23:16:41 23° 60° (ENE) 23:20:00 437.305
SPROUT 12 Feb 23:16:20 23:20:29 51° 69° (ENE) 23:24:39 437.525
AISAT 12 Feb 23:18:44 23:23:07 54° 259° (W) 23:27:32 437.250
QB50P1 12 Feb 23:22:53 23:26:34 29° 95° (E) 23:30:15 145.935-145.965
AIST 2 12 Feb 23:24:25 23:27:10 17° 4° (N) 23:29:55 435.215
CUBEBUG 1 12 Feb 23:28:35 23:32:56 54° 260° (W) 23:37:18 437.445
DX 1 12 Feb 23:31:13 23:35:21 40° 262° (W) 23:39:31 434.975-435.025
50 SAT 12 Feb 23:34:32 23:37:48 29° 265° (W) 23:41:07 437.505
RS-15 12 Feb 23:37:44 23:41:25 12° 272° (W) 23:45:08 29.354- 29.394
BEESAT 3 12 Feb 23:48:33 23:52:22 41° 36° (NE) 23:56:08 437.485
ITUPSAT 1 12 Feb 23:52:48 23:55:46 17° 52° (NE) 23:58:45 437.325
ANTELSAT 12 Feb 23:53:10 23:57:21 47° 292° (WNW) 00:01:35 437.575/2403.000
DANDE 12 Feb 23:53:11 23:54:51 11° 67° (ENE) 23:56:31 436.750
ESTCUBE 1 12 Feb 23:55:04 23:58:55 26° 267° (W) 00:02:47 437.505/2401.250
BEESAT 12 Feb 23:58:40 00:01:52 18° 54° (NE) 00:05:07 436.000
TIGRISAT 12 Feb 23:58:54 00:03:01 43° 293° (WNW) 00:07:11 435.000
BUGSAT 1 13 Feb 00:00:05 00:03:47 33° 96° (E) 00:07:26 437.445
POLYITAN 1 13 Feb 00:16:38 00:20:52 89° 297° (WNW) 00:25:05 437.675
QB50P2 13 Feb 00:17:06 00:21:22 86° 284° (WNW) 00:25:35 145.880/145.840
BEESAT 2 13 Feb 00:18:58 00:22:54 49° 39° (NE) 00:26:47 435.950
CUSAT 1 13 Feb 00:27:27 00:33:54 27° 83° (E) 00:40:00 437.405
VELOX 1 13 Feb 00:41:09 00:42:58 12° 275° (W) 00:44:47 145.980
UNISAT 6 13 Feb 00:45:37 00:48:41 19° 302° (WNW) 00:51:46 437.425
POPSAT HIP 1 13 Feb 00:46:07 00:50:12 49° 291° (WNW) 00:54:15 437.405
TISAT 1 13 Feb 00:47:58 00:52:06 53° 259° (W) 00:56:15 437.305
DUCHIFAT 1 13 Feb 00:48:28 00:52:32 49° 291° (WNW) 00:56:34 145.980
NANOSAT C BR1 13 Feb 00:48:38 00:52:41 47° 292° (WNW) 00:56:42 145.865
SWISSCUBE 13 Feb 00:49:44 00:54:16 44° 65° (ENE) 00:58:50 437.505
SPROUT 13 Feb 00:53:20 00:56:44 23° 268° (W) 01:00:10 437.525
QB50P1 13 Feb 00:58:33 01:02:28 38° 294° (WNW) 01:06:21 145.935-145.965
AIST 2 13 Feb 01:03:16 01:06:54 28° 27° (NNE) 01:10:31 435.215
Cosmos 2491 13 Feb 01:06:06 01:14:22 43° 65° (ENE) 01:22:38 435.465 / 435.565
Gurwin Techsat 1B 13 Feb 01:07:52 01:09:04 11° 81° (E) 01:10:15 435.225
BEESAT 3 13 Feb 01:26:26 01:30:07 37° 237° (WSW) 01:33:46 437.485
ITUPSAT 1 13 Feb 01:28:09 01:32:57 82° 70° (ENE) 01:37:47 437.325
DANDE 13 Feb 01:28:11 01:35:45 41° 88° (E) 01:43:22 436.750
BEESAT 13 Feb 01:34:18 01:39:05 88° 258° (WSW) 01:43:55 436.000
BUGSAT 1 13 Feb 01:35:35 01:39:10 31° 296° (WNW) 01:42:44 437.445
Oscar 19 13 Feb 01:45:43 01:50:41 46° 99° (E) 01:55:36 437.125/150
STARS 13 Feb 01:52:40 01:55:39 18° 56° (NE) 01:58:38 437.465
POLYITAN 1 13 Feb 01:53:44 01:56:07 15° 305° (NW) 01:58:29 437.675
QB50P2 13 Feb 01:54:16 01:56:34 15° 306° (NW) 01:58:52 145.880/145.840
BEESAT 2 13 Feb 01:57:08 02:00:39 30° 239° (WSW) 02:04:09 435.950
JAS-2 13 Feb 01:57:55 02:03:23 44° 96° (E) 02:08:25 435.910
YUBILEINY 13 Feb 02:03:47 02:11:00 30° 78° (ENE) 02:18:14 435.215
CUSAT 1 13 Feb 02:07:18 02:15:31 90° 102° (ESE) 02:23:06 437.405
KKS-1 13 Feb 02:17:34 02:21:47 43° 66° (ENE) 02:26:02 437.445
SWISSCUBE 13 Feb 02:28:01 02:32:15 31° 265° (W) 02:36:30 437.505
MOZHAYETS 4 13 Feb 02:36:59 02:40:59 30° 62° (ENE) 02:45:00
AIST 2 13 Feb 02:41:39 02:45:49 76° 229° (SW) 02:49:56 435.215
Gurwin Techsat 1B 13 Feb 02:44:52 02:50:10 60° 102° (ESE) 02:55:26 435.225
AO-7 13 Feb 02:59:29 03:05:35 22° 86° (E) 03:11:37 29.400- 29.500
ITAMSAT 1 13 Feb 03:02:14 03:07:19 47° 99° (E) 03:12:21 435.822/435.867
Cosmos 2491 13 Feb 03:03:06 03:11:37 59° 269° (W) 03:20:08 435.465 / 435.565
ITUPSAT 1 13 Feb 03:08:20 03:11:25 17° 272° (W) 03:14:31 437.325
DANDE 13 Feb 03:10:12 03:18:29 66° 289° (WNW) 03:26:45 436.750
BEESAT 13 Feb 03:14:57 03:17:37 15° 274° (W) 03:20:17 436.000
Cosmos 2504 13 Feb 03:19:32 03:25:37 21° 72° (ENE) 03:31:45 435.465 / 435.565
Oscar 19 13 Feb 03:25:19 03:29:54 34° 299° (WNW) 03:34:28 437.125/150
STARS 13 Feb 03:27:08 03:31:32 78° 255° (WSW) 03:35:58 437.465
CUBESAT XI-V 13 Feb 03:29:01 03:31:50 16° 53° (NE) 03:34:38 437.345
JAS-2 13 Feb 03:43:12 03:48:29 37° 300° (WNW) 03:53:20 435.910
CUSAT 1 13 Feb 03:51:47 03:58:40 30° 303° (WNW) 04:05:02 437.405
KKS-1 13 Feb 03:54:41 03:58:32 28° 266° (W) 04:02:24 437.445
YUBILEINY 13 Feb 03:58:05 04:06:55 81° 282° (WNW) 04:15:51 435.215
M-CUBED/EXP-1 PRIME 13 Feb 04:07:24 04:09:00 13° 97° (E) 04:10:37 437.505
MOZHAYETS 4 13 Feb 04:13:41 04:18:02 43° 262° (W) 04:22:28
AUBIESAT-1 13 Feb 04:13:54 04:15:32 13° 97° (E) 04:17:13 437.475
AIST 2 13 Feb 04:21:44 04:23:37 13° 248° (WSW) 04:25:29 435.215
Gurwin Techsat 1B 13 Feb 04:25:19 04:29:50 29° 302° (WNW) 04:34:20 435.225
ITAMSAT 1 13 Feb 04:41:59 04:46:41 35° 299° (WNW) 04:51:23 435.822/435.867
AO-7 13 Feb 04:51:21 04:59:45 78° 109° (ESE) 05:08:04 29.400- 29.500
DANDE 13 Feb 04:56:41 05:03:04 23° 311° (NW) 05:09:19 436.750
SO-50 13 Feb 04:58:06 05:02:52 51° 126° (SE) 05:07:41 436.795
Cosmos 2491 13 Feb 05:02:03 05:06:30 15° 293° (WNW) 05:11:00 435.465 / 435.565
CUBESAT XI-V 13 Feb 05:03:49 05:08:31 80° 73° (ENE) 05:13:17 437.345
HORYU 2 13 Feb 05:05:51 05:10:18 64° 102° (ESE) 05:14:43 437.375
STARS 13 Feb 05:07:14 05:08:41 11° 275° (W) 05:10:09 437.465
Cosmos 2504 13 Feb 05:08:50 05:17:33 74° 96° (E) 05:26:27 435.465 / 435.565
Cubesat XI-IV 13 Feb 05:22:57 05:25:20 13° 83° (E) 05:27:42 437.490
STRAND 1 13 Feb 05:35:32 05:40:05 33° 61° (ENE) 05:44:41 437.568
M-CUBED/EXP-1 PRIME 13 Feb 05:40:41 05:44:02 67° 293° (WNW) 05:47:33 437.505
AUBIESAT-1 13 Feb 05:47:06 05:50:30 69° 294° (WNW) 05:54:05 437.475
YUBILEINY 13 Feb 05:58:12 06:05:18 26° 308° (NW) 06:12:27 435.215
BRITE-PL 13 Feb 06:13:10 06:16:21 18° 86° (E) 06:19:23 437.365/2234.400
LilacSat-2 13 Feb 06:18:05 06:21:17 25° 94° (E) 06:24:29 437.200
PRISM 13 Feb 06:37:21 06:41:08 34° 65° (ENE) 06:44:58 437.425
SO-50 13 Feb 06:38:48 06:43:32 44° 327° (NNW) 06:48:17 436.795
HORYU 2 13 Feb 06:43:08 06:46:30 22° 302° (WNW) 06:49:53 437.375
CUBESAT XI-V 13 Feb 06:43:29 06:46:32 17° 273° (W) 06:49:35 437.345
AO-7 13 Feb 06:44:37 06:51:58 37° 312° (NW) 06:59:17 29.400- 29.500
CUTE-I 13 Feb 06:46:07 06:51:25 54° 100° (E) 06:56:41 437.470
GOMX 1 13 Feb 06:59:36 07:03:08 23° 90° (E) 07:06:31 467.674
Cubesat XI-IV 13 Feb 07:01:02 07:06:26 69° 103° (ESE) 07:11:48 437.490
Cosmos 2504 13 Feb 07:03:49 07:11:47 36° 300° (WNW) 07:19:51 435.465 / 435.565
HO-68 13 Feb 07:03:53 07:07:06 13° 80° (E) 07:10:19 435.675
STRAND 1 13 Feb 07:14:12 07:19:09 47° 261° (W) 07:24:08 437.568
AUBIESAT-1 13 Feb 07:24:12 07:24:32 10° 312° (NW) 07:24:53 437.475
GONETS M04 13 Feb 07:30:26 07:37:01 25° 76° (ENE) 07:43:37
O/OREOS (USA 219) 13 Feb 07:31:16 07:35:19 34° 108° (ESE) 07:39:26 437.305
CUTE 1.7 + AOD 2 13 Feb 07:37:45 07:39:54 14° 86° (E) 07:42:04 437.475
SEEDS 13 Feb 07:38:34 07:39:23 10° 84° (E) 07:40:11 437.485
BRITE-PL 13 Feb 07:50:43 07:55:31 72° 288° (WNW) 07:59:56 437.365/2234.400
LilacSat-2 13 Feb 07:52:14 07:55:43 35° 293° (WNW) 07:59:11 437.200
DOVE 4 13 Feb 07:59:18 08:03:22 42° 98° (E) 08:07:19 437.250
Cosmos 2499 13 Feb 08:09:31 08:15:34 21° 73° (ENE) 08:21:36 435.465 / 435.565
PRISM 13 Feb 08:12:43 08:16:30 32° 264° (W) 08:20:19 437.425
SO-50 13 Feb 08:21:13 08:25:10 23° 351° (N) 08:29:06 436.795
CANX-2 13 Feb 08:22:15 08:26:15 36° 96° (E) 08:30:15 2200.000
CINEMA 3 13 Feb 08:25:52 08:29:32 29° 95° (E) 08:33:13 145.822/145.860
CUTE-I 13 Feb 08:26:33 08:31:16 32° 301° (WNW) 08:35:58 437.470
GOMX 1 13 Feb 08:37:15 08:41:35 49° 292° (WNW) 08:45:41 467.674
UNISAT 6 13 Feb 08:37:44 08:40:53 20° 59° (ENE) 08:44:03 437.425
AO-7 13 Feb 08:37:58 08:42:29 16° 337° (NNW) 08:46:59 29.400- 29.500
Cubesat XI-IV 13 Feb 08:41:44 08:46:07 26° 304° (NW) 08:50:30 437.490
ZACube-1 13 Feb 08:46:48 08:48:13 11° 85° (E) 08:49:39 437.345
HO-68 13 Feb 08:49:20 08:56:28 58° 102° (ESE) 09:03:33 435.675
COMPASS 1 13 Feb 08:50:37 08:54:34 36° 96° (E) 08:58:30 437.405
FUNcube-1 13 Feb 08:53:25 08:55:20 13° 86° (E) 08:57:16 145.935
Cosmos 2504 13 Feb 09:04:52 09:08:34 13° 328° (NNW) 09:12:15 435.465 / 435.565
AIST 1 13 Feb 09:09:58 09:10:37 10° 79° (ENE) 09:11:17
O/OREOS (USA 219) 13 Feb 09:10:26 09:14:42 40° 309° (NW) 09:19:01 437.305
SEEDS 13 Feb 09:11:36 09:15:53 74° 103° (ESE) 09:20:10 437.485
CUTE 1.7 + AOD 2 13 Feb 09:12:04 09:16:24 87° 284° (WNW) 09:20:42 437.475
PCSat 13 Feb 09:14:24 09:16:15 12° 102° (ESE) 09:18:06 145.827
AAUSAT CUBESAT 2 13 Feb 09:15:28 09:19:37 52° 100° (E) 09:23:44 437.432
Oscar 11 13 Feb 09:19:17 09:23:03 28° 94° (E) 09:26:49 145.826/435.025
ANTELSAT 13 Feb 09:21:31 09:25:36 45° 68° (ENE) 09:29:41 437.575/2403.000
GONETS M04 13 Feb 09:23:58 09:32:41 88° 99° (E) 09:41:29
TIGRISAT 13 Feb 09:27:00 09:31:07 48° 68° (ENE) 09:35:14 435.000
BRITE-PL 13 Feb 09:30:39 09:33:07 14° 310° (NW) 09:35:31 437.365/2234.400
UWE-3 13 Feb 09:35:52 09:39:52 42° 98° (E) 09:43:57 435.000/436.395/437.385
DOVE 4 13 Feb 09:37:22 09:40:57 26° 298° (WNW) 09:44:27 437.250
POLYITAN 1 13 Feb 09:40:34 09:43:52 23° 60° (ENE) 09:47:10 437.675
QB50P2 13 Feb 09:40:57 09:44:18 23° 60° (ENE) 09:47:39 145.880/145.840
CUBEBUG 2 13 Feb 09:43:17 09:47:27 65° 101° (ESE) 09:51:42 437.445
RS-15 13 Feb 09:44:22 09:51:41 20° 96° (E) 09:59:11 29.354- 29.394
CANX-2 13 Feb 09:58:16 10:02:05 32° 295° (WNW) 10:05:53 2200.000
Cosmos 2499 13 Feb 09:58:28 10:07:15 73° 96° (E) 10:16:04 435.465 / 435.565
DELFI C3 13 Feb 09:58:58 10:02:47 37° 97° (E) 10:06:33 145.870
AO-85 13 Feb 09:59:43 10:04:46 40° 121° (ESE) 10:09:53 145.980
CINEMA 3 13 Feb 10:02:58 10:06:47 36° 294° (WNW) 10:10:36 145.822/145.860
SO-50 13 Feb 10:03:03 10:07:09 25° 15° (NNE) 10:11:09 436.795
HUMSAT D 13 Feb 10:06:42 10:10:00 22° 92° (E) 10:13:18 437.325/437.525
POPSAT HIP 1 13 Feb 10:08:59 10:12:53 37° 66° (ENE) 10:16:48 437.405
DUCHIFAT 1 13 Feb 10:10:52 10:14:44 37° 66° (ENE) 10:18:36 145.980
NANOSAT C BR1 13 Feb 10:11:10 10:15:05 38° 66° (ENE) 10:19:00 145.865
UNISAT 6 13 Feb 10:13:01 10:17:16 62° 258° (WSW) 10:21:32 437.425
DANDE 13 Feb 10:20:39 10:24:15 14° 35° (NE) 10:27:30 436.750
ZACube-1 13 Feb 10:20:59 10:25:14 82° 104° (ESE) 10:29:32 437.345
QB50P1 13 Feb 10:21:02 10:25:06 48° 68° (ENE) 10:29:12 145.935-145.965
COMPASS 1 13 Feb 10:26:22 10:30:06 31° 296° (WNW) 10:33:50 437.405
FUNcube-1 13 Feb 10:27:59 10:32:14 90° 280° (W) 10:36:32 145.935
AO-7 13 Feb 10:29:03 10:31:57 12° 5° (N) 10:34:50 29.400- 29.500
JAS-2 13 Feb 10:34:45 10:38:06 14° 43° (NE) 10:41:18 435.910
